PROBA-1 1 26958U 01049B 26120.60783780 .00002131 00000+0 14130-3 0 9992 2 26958 97.9614 127.4830 0053516 284.4888 75.0405 15.07318066336454 CUTE-1 (CO-55) 1 27844U 03031E 26120.61928520 .00000312 00000+0 15395-3 0 9997 2 27844 98.6753 129.7745 0008875 330.4565 29.6111 14.24305462184907 CUBESAT XI-IV (CO-57) 1 27848U 03031J 26120.58395695 .00000262 00000+0 13413-3 0 9991 2 27848 98.6788 129.4909 0009129 349.8845 10.2148 14.23594639184604 APRIZESAT 4 1 35684U 09041D 26120.44683752 .00000940 00000+0 11845-3 0 9994 2 35684 98.1421 194.8165 0044584 115.8312 244.7510 14.83806534904281 APRIZESAT 3 1 35686U 09041F 26120.41415025 .00001897 00000+0 16860-3 0 9993 2 35686 98.1995 271.3717 0061128 224.0125 135.6219 14.96072723909234 PROBA-2 1 36037U 09059B 26120.50992613 .00000209 00000+0 59125-4 0 9994 2 36037 98.2449 304.5246 0014483 70.2426 290.0332 14.54841739874590 APRIZESAT 5 1 37792U 11044E 26120.37625225 .00000910 00000+0 12229-3 0 9999 2 37792 98.2441 52.0717 0052791 155.3229 205.0526 14.80977397791711 APRIZESAT 6 1 37793U 11044F 26120.59655389 .00000693 00000+0 10535-3 0 9994 2 37793 98.2390 30.1206 0041969 237.3832 242.1779 14.76850227790124 PROBA-V 1 39159U 13021A 26120.46590928 .00000075 00000+0 50756-4 0 9996 2 39159 98.3562 101.4361 0002950 275.1385 84.9458 14.23586611674322 APRIZESAT 7 1 39416U 13066A 26120.45466244 .00001504 00000+0 15435-3 0 9995 2 39416 97.7674 74.3749 0036266 12.1364 348.0719 14.91447445674113 APRIZESAT 8 1 39425U 13066K 26120.58617923 .00001209 00000+0 13659-3 0 9999 2 39425 97.8191 68.7323 0047550 82.7697 277.8921 14.87547197672597 BUGSAT-1 (TITA) 1 40014U 14033E 26120.55794310 .00003895 00000+0 21014-3 0 9990 2 40014 98.0416 210.3458 0027754 346.5028 13.5457 15.15100124648626 SAUDISAT 4 1 40016U 14033G 26120.64147323 .00000807 00000+0 11322-3 0 9999 2 40016 97.7516 268.4396 0043807 226.8403 132.9144 14.79472732639045 APRIZESAT 9 1 40018U 14033J 26120.62709768 .00000526 00000+0 84873-4 0 9996 2 40018 97.8987 255.0076 0065990 354.4418 5.6050 14.74159756636556 APRIZESAT 10 1 40019U 14033K 26120.30300523 .00000596 00000+0 10095-3 0 9999 2 40019 97.9576 248.3513 0080083 67.1600 293.8039 14.70839216635216 TECHDEMOSAT-1 (TDS-1) 1 40076U 14037H 26120.47237514 .00008319 00000+0 48120-3 0 9994 2 40076 98.3805 107.9909 0008120 75.2951 284.9177 15.12533431641015 TECHNOSAT 1 42829U 17042E 26120.50527841 .00003377 00000+0 24373-3 0 9993 2 42829 97.4236 280.0028 0016073 254.9274 105.0174 15.04665469479530 FLYING LAPTOP 1 42831U 17042G 26120.58676413 .00003509 00000+0 27967-3 0 9993 2 42831 97.4468 278.0242 0017883 287.1727 72.7540 15.00838850479311 HAWK-A 1 43765U 18099H 26120.42771736 .00008482 00000+0 34618-3 0 9996 2 43765 97.3957 173.2985 0036999 93.9666 266.5802 15.24021169405826 HAWK-B 1 43794U 18099AN 26120.59009654 .00006613 00000+0 28600-3 0 9997 2 43794 97.4007 172.9717 0034143 110.0888 250.4028 15.22247570405792 HAWK-C 1 43799U 18099AT 26120.57595937 .00009284 00000+0 34006-3 0 9998 2 43799 97.3934 174.1272 0042856 94.3310 266.2828 15.27354494406646 SALSAT 1 46495U 20068K 26120.45042489 .00008489 00000+0 30299-3 0 9995 2 46495 97.8854 120.6367 0011665 107.7663 252.4849 15.29083608308068 HAWK-2C 1 47502U 21006CT 26120.60984723 .00006712 00000+0 20570-3 0 9999 2 47502 97.2320 165.8791 0007260 26.5246 333.6367 15.34084522292200 HAWK-2A 1 47505U 21006CW 26120.61276661 .00006705 00000+0 20543-3 0 9990 2 47505 97.2365 166.5319 0006986 30.9185 329.2469 15.34096686292209 HAWK-2B 1 47508U 21006CZ 26120.60982141 .00007628 00000+0 23325-3 0 9995 2 47508 97.2238 164.9389 0007407 27.8412 332.3227 15.34109112292203 HAWK-3B 1 48931U 21059BE 26120.51206615 .00040785 00000+0 40311-3 0 9994 2 48931 97.6693 312.8525 0006131 139.1387 221.0333 15.65764321270380 HAWK-3C 1 48948U 21059BX 26120.51176980 .00039123 00000+0 38702-3 0 9998 2 48948 97.6820 318.4532 0006606 138.7049 221.4710 15.65747315270384 HAWK-3A 1 48957U 21059CG 26120.51162696 .00040759 00000+0 40296-3 0 9995 2 48957 97.6760 315.6966 0006250 139.0545 221.1184 15.65757115270388 HAWK-5C 1 52754U 22057Y 26120.47997413 .00019404 00000+0 35182-3 0 9993 2 52754 97.6525 277.1616 0003904 228.7121 131.3794 15.49653720218953 HAWK-5B 1 52756U 22057AA 26120.47983568 .00019660 00000+0 35635-3 0 9998 2 52756 97.6534 275.5047 0004143 224.7977 135.2940 15.49658946218957 HAWK-5A 1 52757U 22057AB 26120.47959781 .00019790 00000+0 35871-3 0 9995 2 52757 97.6530 276.3382 0004337 227.1665 132.9222 15.49655917218953 HAWK-6B 1 55324U 23011A 26120.50228690 .00005377 00000+0 23536-3 0 9992 2 55324 40.4995 270.1097 0001999 29.0728 331.0192 15.22499761180570 HAWK-6C 1 55326U 23011C 26120.43605442 .00005522 00000+0 24143-3 0 9997 2 55326 40.4980 267.3396 0002710 15.0752 345.0137 15.22502847180574 HAWK-6A 1 55327U 23011D 26120.50168578 .00005471 00000+0 23930-3 0 9996 2 55327 40.4991 268.5769 0002400 9.7247 350.3608 15.22502181180583 HAWK-7A 1 56191U 23054P 26120.60402954 .00005789 00000+0 22214-3 0 9999 2 56191 97.2765 9.1537 0002687 165.5527 194.5789 15.26853481169764 HAWK-7B 1 56193U 23054R 26120.60396163 .00005914 00000+0 22685-3 0 9997 2 56193 97.2792 7.4006 0001818 161.9989 198.1315 15.26854269169765 HAWK-7C 1 56200U 23054Y 26120.60385473 .00005739 00000+0 22022-3 0 9998 2 56200 97.2767 8.1841 0002331 156.1764 203.9583 15.26854046169764